EW8958 Weather Reports


time (UTC)temp
F
wind
direction
speed
knots
gust
knots
rain 1hr
in
rain 24hr
in
rain mn
in
humidity
%
barometer
mb
20260507070033 52 248 0.0 2.6 0.00 0.15 0.01 86 1006.0
20260507065015 52 0.0 0.0 0.00 0.15 0.01 86 1006.3
20260507064030 52 270 0.0 0.9 0.00 0.15 0.01 85 1006.3
20260507063022 52 0.0 0.0 0.00 0.15 0.01 84 1006.4
20260507062022 52 290 0.9 3.5 0.00 0.15 0.01 84 1006.3
20260507061024 53 0.0 0.0 0.00 0.15 0.01 84 1006.3
20260507060026 53 352 0.9 1.7 0.00 0.15 0.01 84 1006.3
20260507055026 53 328 1.7 3.5 0.00 0.15 0.01 84 1006.6
20260507054048 53 339 2.6 4.3 0.00 0.15 0.01 86 1006.4
20260507053023 54 332 1.7 2.6 0.00 0.15 0.01 89 1006.4
20260507052019 55 298 0.9 1.7 0.00 0.15 0.01 91 1006.6
20260507051021 55 269 0.9 2.6 0.00 0.15 0.01 90 1006.4
20260507050017 55 302 1.7 5.2 0.00 0.15 0.01 90 1006.7
20260507045031 55 277 0.9 2.6 0.01 0.15 0.01 90 1006.6
20260507044113 55 270 0.9 2.6 0.01 0.15 0.01 90 1006.4
20260507043036 55 266 0.9 2.6 0.01 0.15 0.01 89 1006.4
20260507042050 56 307 0.9 2.6 0.01 0.15 0.01 89 1006.3
20260507041025 56 258 1.7 4.3 0.01 0.15 0.01 88 1006.6
20260507040048 57 353 2.6 7.8 0.01 0.15 0.01 89 1006.2
20260507035022 58 279 2.6 7.0 0.00 0.14 0.14 93 1005.7
20260507034023 59 240 1.7 3.5 0.00 0.14 0.14 95 1005.9
20260507033024 59 134 1.7 2.6 0.00 0.14 0.14 95 1005.8
20260507032026 59 202 0.0 1.7 0.00 0.14 0.14 95 1005.6
20260507031022 59 201 0.9 3.5 0.00 0.14 0.14 95 1005.2
20260507030019 59 201 1.7 3.5 0.00 0.14 0.14 95 1005.3
20260507025032 59 200 1.7 3.5 0.00 0.14 0.14 95 1005.3
20260507024028 59 318 0.9 1.7 0.00 0.14 0.14 95 1005.4
20260507023024 59 225 0.9 3.5 0.00 0.14 0.14 95 1005.3
20260507022021 59 190 2.6 4.3 0.00 0.14 0.14 95 1005.1
20260507021028 59 174 1.7 3.5 0.00 0.14 0.14 95 1005.0
20260507020029 59 168 1.7 6.1 0.00 0.14 0.14 95 1005.1
20260507015047 59 220 1.7 3.5 0.00 0.14 0.14 95 1005.3
20260507014017 59 194 1.7 3.5 0.00 0.14 0.14 95 1005.3
20260507013019 59 115 1.7 3.5 0.00 0.14 0.14 95 1005.3
20260507012031 59 160 2.6 5.2 0.00 0.14 0.14 95 1005.4
20260507011036 59 175 2.6 4.3 0.00 0.14 0.14 95 1005.4
20260507010038 59 129 3.5 6.1 0.00 0.14 0.14 95 1005.3
20260507005024 59 177 4.3 8.7 0.00 0.14 0.14 95 1005.4
20260507004021 59 189 3.5 6.1 0.00 0.14 0.14 95 1005.2
20260507003021 59 192 3.5 6.1 0.00 0.14 0.14 95 1005.2
20260507002023 59 164 2.6 7.0 0.01 0.14 0.14 95 1005.2
20260507001019 59 169 2.6 4.3 0.01 0.14 0.14 95 1005.1
20260507000022 59 204 3.5 5.2 0.04 0.14 0.14 94 1005.0
20260506235049 59 177 1.7 3.5 0.05 0.14 0.14 94 1005.1
20260506234026 59 126 1.7 3.5 0.05 0.14 0.14 94 1005.0
20260506233027 60 160 2.6 6.1 0.05 0.14 0.14 94 1004.9
20260506232018 60 144 2.6 5.2 0.04 0.13 0.13 93 1004.8
20260506231020 60 165 2.6 5.2 0.05 0.13 0.13 93 1005.0
20260506230043 60 139 3.5 7.0 0.02 0.10 0.10 92 1005.2
20260506225017 60 242 2.6 5.2 0.01 0.09 0.09 92 1005.2
20260506224019 60 129 4.3 7.8 0.01 0.09 0.09 92 1005.3
20260506223026 60 138 3.5 5.2 0.01 0.09 0.09 92 1005.3
20260506222021 60 150 2.6 5.2 0.01 0.09 0.09 91 1005.4
20260506221017 60 179 3.5 5.2 0.00 0.08 0.08 91 1005.4
20260506220019 60 182 3.5 5.2 0.01 0.08 0.08 91 1005.5
20260506215033 60 186 3.5 6.1 0.01 0.08 0.08 91 1005.8
20260506214028 60 162 3.5 5.2 0.01 0.08 0.08 90 1005.7
20260506213024 60 270 2.6 2.6 0.02 0.08 0.08 90 1005.8
20260506212025 61 179 4.3 7.0 0.03 0.08 0.08 90 1006.2
20260506211046 61 219 3.5 5.2 0.03 0.08 0.08 89 1006.1
20260506210029 61 49 2.6 2.6 0.03 0.07 0.07 89 1006.2
20260506205024 61 158 5.2 7.8 0.03 0.07 0.07 89 1006.3
20260506204020 61 122 3.5 4.3 0.03 0.07 0.07 89 1006.3
20260506203015 61 217 6.1 9.6 0.03 0.06 0.06 88 1006.3
20260506202016 62 112 4.3 7.0 0.03 0.05 0.05 86 1006.2
20260506201024 62 131 3.5 6.1 0.03 0.05 0.05 85 1006.1
20260506200021 63 252 3.5 5.2 0.03 0.04 0.04 85 1006.3
20260506195016 63 188 2.6 5.2 0.04 0.04 0.04 85 1006.2
20260506194059 63 142 2.6 4.3 0.04 0.04 0.04 83 1006.2
20260506193033 64 173 2.6 3.5 0.03 0.03 0.03 83 1006.1
20260506192052 64 190 2.6 5.2 0.02 0.02 0.02 82 1006.0
20260506191023 65 198 1.7 2.6 0.02 0.02 0.02 80 1006.2
20260506190019 66 199 2.6 3.5 0.01 0.01 0.01 76 1006.2
20260506185032 67 174 4.3 7.8 0.00 0.00 0.00 69 1006.3
20260506184029 68 171 3.5 7.0 0.00 0.00 0.00 67 1006.3
20260506183030 69 211 2.6 4.3 0.00 0.00 0.00 65 1006.3
20260506182112 71 214 3.5 6.1 0.00 0.00 0.00 60 1006.4
20260506181027 72 187 4.3 6.1 0.00 0.00 0.00 56 1006.4
20260506180029 72 199 3.5 5.2 0.00 0.00 0.00 55 1006.4
20260506175025 73 133 4.3 7.8 0.00 0.00 0.00 54 1006.7
20260506174021 73 188 5.2 7.8 0.00 0.00 0.00 54 1006.5
20260506173032 74 169 6.1 7.0 0.00 0.00 0.00 53 1006.5
20260506172037 74 184 6.1 8.7 0.00 0.00 0.00 53 1006.5
20260506171030 75 158 6.1 11.3 0.00 0.00 0.00 52 1006.7
20260506170025 75 163 3.5 7.0 0.00 0.00 0.00 52 1006.8
20260506165021 74 175 2.6 4.3 0.00 0.00 0.00 53 1007.1
20260506164043 72 242 3.5 6.1 0.00 0.00 0.00 54 1007.1
20260506163025 72 186 2.6 5.2 0.00 0.00 0.00 56 1007.2
20260506162027 72 230 5.2 7.8 0.00 0.00 0.00 54 1007.4
20260506161022 72 173 3.5 6.1 0.00 0.00 0.00 55 1007.7
20260506160023 72 220 3.5 5.2 0.00 0.00 0.00 55 1008.0
20260506155019 72 201 3.5 6.1 0.00 0.00 0.00 55 1008.3
20260506154027 72 205 3.5 8.7 0.00 0.00 0.00 54 1008.3
20260506153023 72 213 4.3 7.0 0.00 0.00 0.00 55 1008.4
20260506152019 73 167 3.5 6.1 0.00 0.00 0.00 55 1008.4
20260506151035 72 179 4.3 7.8 0.00 0.00 0.00 56 1008.4
20260506150023 73 188 5.2 9.6 0.00 0.00 0.00 55 1008.7
20260506145045 72 220 3.5 5.2 0.00 0.00 0.00 57 1008.6
20260506144027 71 217 3.5 5.2 0.00 0.00 0.00 57 1008.6
20260506143043 71 204 4.3 7.8 0.00 0.00 0.00 58 1008.6
20260506142025 71 176 5.2 10.4 0.00 0.00 0.00 58 1008.4
20260506141049 71 201 4.3 6.1 0.00 0.00 0.00 59 1008.7
20260506140029 72 160 3.5 5.2 0.00 0.00 0.00 59 1008.5
20260506135031 69 166 5.2 8.7 0.00 0.00 0.00 62 1008.7
20260506134032 68 198 3.5 5.2 0.00 0.00 0.00 64 1009.0
20260506133016 68 155 3.5 7.8 0.00 0.00 0.00 66 1009.2
20260506132037 67 163 3.5 5.2 0.00 0.00 0.00 67 1009.2
20260506131026 66 185 4.3 6.1 0.00 0.00 0.00 68 1009.2
20260506130020 66 158 3.5 6.1 0.00 0.00 0.00 68 1009.2
20260506125035 66 145 3.5 5.2 0.00 0.00 0.00 69 1009.0
20260506124050 66 173 3.5 5.2 0.00 0.00 0.00 69 1009.1
20260506123032 65 191 2.6 5.2 0.00 0.00 0.00 70 1009.2
20260506122033 65 167 3.5 7.0 0.00 0.00 0.00 70 1009.3
20260506121016 66 185 4.3 7.8 0.00 0.00 0.00 68 1009.2
20260506120038 64 186 3.5 6.1 0.00 0.00 0.00 72 1009.4
20260506115038 63 182 3.5 4.3 0.00 0.00 0.00 74 1009.4
20260506114020 63 226 3.5 7.8 0.00 0.00 0.00 73 1009.6
20260506113032 63 165 4.3 7.0 0.00 0.00 0.00 73 1009.8
20260506112038 63 204 3.5 5.2 0.00 0.00 0.00 74 1009.6
20260506111019 63 181 3.5 7.0 0.00 0.00 0.00 71 1009.3
20260506110026 63 107 4.3 6.1 0.00 0.00 0.00 73 1009.5
20260506105021 62 164 3.5 7.8 0.00 0.00 0.00 75 1009.4
20260506104016 60 196 2.6 5.2 0.00 0.00 0.00 77 1009.5
20260506103018 60 158 3.5 6.1 0.00 0.00 0.00 77 1009.5
20260506102034 60 164 2.6 4.3 0.00 0.00 0.00 77 1009.4
20260506101028 60 181 3.5 5.2 0.00 0.00 0.00 76 1009.3
20260506100043 60 174 2.6 4.3 0.00 0.00 0.00 76 1009.5
20260506095019 60 186 3.5 7.0 0.00 0.00 0.00 76 1009.1
20260506094032 60 155 3.5 7.8 0.00 0.00 0.00 76 1009.3
20260506093028 60 156 3.5 6.1 0.00 0.00 0.00 76 1009.4
20260506092046 60 152 2.6 5.2 0.00 0.00 0.00 75 1009.4
20260506091028 60 150 4.3 9.6 0.00 0.00 0.00 75 1009.3
20260506090028 60 141 3.5 7.0 0.00 0.00 0.00 74 1009.4
20260506085031 61 136 2.6 5.2 0.00 0.00 0.00 74 1009.4
20260506084027 61 172 3.5 7.0 0.00 0.00 0.00 73 1009.4
20260506083022 61 201 3.5 6.1 0.00 0.00 0.00 73 1009.3
20260506082018 61 161 2.6 4.3 0.00 0.00 0.00 72 1009.3
20260506081112 62 181 3.5 6.1 0.00 0.00 0.00 72 1009.3
20260506073020 62 187 3.5 7.0 0.00 0.00 0.00 69 1009.2
20260506072018 63 172 3.5 6.1 0.00 0.00 0.00 68 1009.1
20260506071050 63 220 2.6 6.1 0.00 0.00 0.00 68 1008.9